Time,TemperatureF,DewpointF,PressureIn,WindDirection,WindDirectionDegrees,WindSpeedMPH,WindSpeedGustMPH,Humidity,HourlyPrecipIn,Conditions,Clouds,dailyrainin,SolarRadiationWatts/m^2,SoftwareType,DateUTC
2013-03-11 00:03:00,29.0,21.0,-100.00,NNE,23,9.0,15.0,73,0.00,,,0.01,0.000000,,2013-03-11 05:03:00,
2013-03-11 00:32:00,29.0,22.0,-100.00,NNE,17,9.0,18.0,75,0.00,,,0.01,0.000000,,2013-03-11 05:32:00,
2013-03-11 00:43:00,29.0,22.0,-100.00,NNE,17,9.0,18.0,75,0.00,,,0.01,0.000000,,2013-03-11 05:43:00,
2013-03-11 00:52:00,29.0,22.0,-100.00,NNE,17,9.0,18.0,75,0.00,,,0.01,0.000000,,2013-03-11 05:52:00,
2013-03-11 01:02:00,29.0,22.0,-100.00,NNE,17,9.0,18.0,75,0.00,,,0.01,0.000000,,2013-03-11 06:02:00,
2013-03-11 01:33:00,28.0,21.0,-100.00,NNE,12,10.0,17.0,76,0.00,,,0.00,0.000000,,2013-03-11 06:33:00,
2013-03-11 01:42:00,28.0,21.0,-100.00,NNE,12,10.0,17.0,76,0.00,,,0.00,0.000000,,2013-03-11 06:42:00,
2013-03-11 01:53:00,28.0,21.0,-100.00,NNE,12,10.0,17.0,76,0.00,,,0.00,0.000000,,2013-03-11 06:53:00,
2013-03-11 02:02:00,28.0,21.0,-100.00,NNE,12,10.0,17.0,76,0.00,,,0.00,0.000000,,2013-03-11 07:02:00,
2013-03-11 02:33:00,27.0,20.0,-100.00,NNE,12,8.0,17.0,76,0.00,,,0.00,0.000000,,2013-03-11 07:33:00,
2013-03-11 02:42:00,27.0,20.0,-100.00,NNE,12,8.0,17.0,76,0.00,,,0.00,0.000000,,2013-03-11 07:42:00,
2013-03-11 02:52:00,27.0,20.0,-100.00,NNE,12,8.0,17.0,76,0.00,,,0.00,0.000000,,2013-03-11 07:52:00,
2013-03-11 03:02:00,27.0,20.0,-100.00,NNE,12,8.0,17.0,76,0.00,,,0.00,0.000000,,2013-03-11 08:02:00,
2013-03-11 03:33:00,27.0,21.0,-100.00,North,2,9.0,16.0,77,0.00,,,0.00,0.000000,,2013-03-11 08:33:00,
2013-03-11 03:42:00,27.0,21.0,-100.00,North,2,9.0,16.0,77,0.00,,,0.00,0.000000,,2013-03-11 08:42:00,
2013-03-11 03:52:00,27.0,21.0,-100.00,North,2,9.0,16.0,77,0.00,,,0.00,0.000000,,2013-03-11 08:52:00,
2013-03-11 04:02:00,27.0,21.0,-100.00,North,2,9.0,16.0,77,0.00,,,0.00,0.000000,,2013-03-11 09:02:00,
2013-03-11 04:32:00,26.0,20.0,-100.00,North,4,8.0,17.0,78,0.00,,,0.00,0.000000,,2013-03-11 09:32:00,
2013-03-11 04:42:00,26.0,20.0,-100.00,North,4,8.0,17.0,78,0.00,,,0.00,0.000000,,2013-03-11 09:42:00,
2013-03-11 04:52:00,26.0,20.0,-100.00,North,4,8.0,17.0,78,0.00,,,0.00,0.000000,,2013-03-11 09:52:00,
2013-03-11 05:02:00,26.0,20.0,-100.00,North,4,8.0,17.0,78,0.00,,,0.00,0.000000,,2013-03-11 10:02:00,
2013-03-11 05:33:00,26.0,20.0,-100.00,North,4,9.0,17.0,79,0.00,,,0.00,0.000000,,2013-03-11 10:33:00,
2013-03-11 05:42:00,26.0,20.0,-100.00,North,4,9.0,17.0,79,0.00,,,0.00,0.000000,,2013-03-11 10:42:00,
2013-03-11 05:52:00,26.0,20.0,-100.00,North,4,9.0,17.0,79,0.00,,,0.00,0.000000,,2013-03-11 10:52:00,
2013-03-11 06:02:00,26.0,20.0,-100.00,North,4,9.0,17.0,79,0.00,,,0.00,0.000000,,2013-03-11 11:02:00,
2013-03-11 06:33:00,25.0,20.0,-100.00,North,7,8.0,16.0,80,0.00,,,-99.99,0.000000,,2013-03-11 11:33:00,
2013-03-11 06:43:00,25.0,20.0,-100.00,North,7,8.0,16.0,80,0.00,,,-99.99,0.000000,,2013-03-11 11:43:00,
2013-03-11 06:53:00,25.0,20.0,-100.00,North,7,8.0,16.0,80,0.00,,,-99.99,0.000000,,2013-03-11 11:53:00,
2013-03-11 07:02:00,25.0,20.0,-100.00,North,7,8.0,16.0,80,0.00,,,-99.99,0.000000,,2013-03-11 12:02:00,
2013-03-11 07:33:00,25.0,19.0,-100.00,North,1,8.0,17.0,79,0.00,,,-99.99,0.000000,,2013-03-11 12:33:00,
2013-03-11 07:43:00,25.0,19.0,-100.00,North,1,8.0,17.0,79,0.00,,,-99.99,0.000000,,2013-03-11 12:43:00,
2013-03-11 07:53:00,25.0,19.0,-100.00,North,1,8.0,17.0,79,0.00,,,-99.99,0.000000,,2013-03-11 12:53:00,
2013-03-11 08:02:00,25.0,19.0,-100.00,North,1,8.0,17.0,79,0.00,,,-99.99,0.000000,,2013-03-11 13:02:00,
2013-03-11 08:33:00,25.0,19.0,-100.00,North,354,7.0,14.0,79,0.00,,,-99.99,4.000000,,2013-03-11 13:33:00,
2013-03-11 08:43:00,25.0,19.0,-100.00,North,354,7.0,14.0,79,0.00,,,-99.99,4.000000,,2013-03-11 13:43:00,
2013-03-11 08:53:00,25.0,19.0,-100.00,North,354,7.0,14.0,79,0.00,,,-99.99,4.000000,,2013-03-11 13:53:00,
2013-03-11 09:02:00,25.0,19.0,-100.00,North,354,7.0,14.0,79,0.00,,,-99.99,4.000000,,2013-03-11 14:02:00,
2013-03-11 09:33:00,25.0,20.0,-100.00,North,349,8.0,15.0,80,0.00,,,0.00,20.000000,,2013-03-11 14:33:00,
2013-03-11 09:43:00,25.0,20.0,-100.00,North,349,8.0,15.0,80,0.00,,,0.00,20.000000,,2013-03-11 14:43:00,
2013-03-11 09:53:00,25.0,20.0,-100.00,North,349,8.0,15.0,80,0.00,,,0.00,20.000000,,2013-03-11 14:53:00,
2013-03-11 10:02:00,25.0,20.0,-100.00,North,349,8.0,15.0,80,0.00,,,0.00,20.000000,,2013-03-11 15:02:00,
2013-03-11 10:33:00,25.0,19.0,-100.00,NNW,348,7.0,17.0,79,0.00,,,0.00,53.000000,,2013-03-11 15:33:00,
2013-03-11 10:43:00,25.0,19.0,-100.00,NNW,348,7.0,17.0,79,0.00,,,0.00,53.000000,,2013-03-11 15:43:00,
2013-03-11 10:53:00,25.0,19.0,-100.00,NNW,348,7.0,17.0,79,0.00,,,0.00,53.000000,,2013-03-11 15:53:00,
2013-03-11 11:02:00,25.0,19.0,-100.00,NNW,348,7.0,17.0,79,0.00,,,0.00,53.000000,,2013-03-11 16:02:00,
2013-03-11 11:32:00,26.0,21.0,-100.00,North,352,8.0,17.0,81,0.00,,,0.00,80.000000,,2013-03-11 16:32:00,
2013-03-11 11:43:00,26.0,21.0,-100.00,North,352,8.0,17.0,81,0.00,,,0.00,80.000000,,2013-03-11 16:43:00,
2013-03-11 11:52:00,26.0,21.0,-100.00,North,352,8.0,17.0,81,0.00,,,0.00,80.000000,,2013-03-11 16:52:00,
2013-03-11 12:02:00,26.0,21.0,-100.00,North,352,8.0,17.0,81,0.00,,,0.00,80.000000,,2013-03-11 17:02:00,
2013-03-11 12:38:00,27.0,22.0,-100.00,North,2,7.0,15.0,82,0.00,,,-99.99,114.000000,,2013-03-11 17:38:00,
2013-03-11 12:53:00,27.0,22.0,-100.00,North,2,7.0,15.0,82,0.00,,,-99.99,114.000000,,2013-03-11 17:53:00,
2013-03-11 13:02:00,27.0,22.0,-100.00,North,2,7.0,15.0,82,0.00,,,-99.99,114.000000,,2013-03-11 18:02:00,
2013-03-11 13:33:00,28.0,22.0,-100.00,North,7,9.0,15.0,79,0.00,,,-99.99,127.000000,,2013-03-11 18:33:00,
2013-03-11 13:43:00,28.0,22.0,-100.00,North,7,9.0,15.0,79,0.00,,,-99.99,127.000000,,2013-03-11 18:43:00,
2013-03-11 13:53:00,28.0,22.0,-100.00,North,7,9.0,15.0,79,0.00,,,-99.99,127.000000,,2013-03-11 18:53:00,
2013-03-11 14:02:00,28.0,22.0,-100.00,North,7,9.0,15.0,79,0.00,,,-99.99,127.000000,,2013-03-11 19:02:00,
2013-03-11 14:33:00,30.0,22.0,-100.00,North,2,9.0,16.0,73,0.00,,,0.00,183.000000,,2013-03-11 19:33:00,
2013-03-11 14:43:00,30.0,22.0,-100.00,North,2,9.0,16.0,73,0.00,,,0.00,183.000000,,2013-03-11 19:43:00,
2013-03-11 14:53:00,30.0,22.0,-100.00,North,2,9.0,16.0,73,0.00,,,0.00,183.000000,,2013-03-11 19:53:00,
2013-03-11 15:02:00,30.0,22.0,-100.00,North,2,9.0,16.0,73,0.00,,,0.00,183.000000,,2013-03-11 20:02:00,
2013-03-11 15:33:00,32.0,21.0,-100.00,North,359,9.0,16.0,63,0.00,,,0.00,245.000000,,2013-03-11 20:33:00,
2013-03-11 15:44:00,32.0,21.0,-100.00,North,359,9.0,16.0,63,0.00,,,0.00,245.000000,,2013-03-11 20:44:00,
2013-03-11 15:53:00,32.0,21.0,-100.00,North,359,9.0,16.0,63,0.00,,,0.00,245.000000,,2013-03-11 20:53:00,
2013-03-11 16:03:00,32.0,21.0,-100.00,North,359,9.0,16.0,63,0.00,,,0.00,245.000000,,2013-03-11 21:03:00,
2013-03-11 16:33:00,31.0,18.0,-100.00,NNW,336,6.0,16.0,58,0.00,,,0.00,177.000000,,2013-03-11 21:33:00,
2013-03-11 16:44:00,31.0,18.0,-100.00,NNW,336,6.0,16.0,58,0.00,,,0.00,177.000000,,2013-03-11 21:44:00,
2013-03-11 16:53:00,31.0,18.0,-100.00,NNW,336,6.0,16.0,58,0.00,,,0.00,177.000000,,2013-03-11 21:53:00,
2013-03-11 17:02:00,31.0,18.0,-100.00,NNW,336,6.0,16.0,58,0.00,,,0.00,177.000000,,2013-03-11 22:02:00,
2013-03-11 17:33:00,31.0,20.0,-100.00,NNW,338,6.0,13.0,62,0.00,,,0.00,146.000000,,2013-03-11 22:33:00,
2013-03-11 17:43:00,31.0,20.0,-100.00,NNW,338,6.0,13.0,62,0.00,,,0.00,146.000000,,2013-03-11 22:43:00,
2013-03-11 17:53:00,31.0,20.0,-100.00,NNW,338,6.0,13.0,62,0.00,,,0.00,146.000000,,2013-03-11 22:53:00,
2013-03-11 18:03:00,31.0,20.0,-100.00,NNW,338,6.0,13.0,62,0.00,,,0.00,146.000000,,2013-03-11 23:03:00,
2013-03-11 18:33:00,30.0,19.0,-100.00,NW,325,5.0,13.0,63,0.00,,,0.00,88.000000,,2013-03-11 23:33:00,
2013-03-11 18:43:00,30.0,19.0,-100.00,NW,325,5.0,13.0,63,0.00,,,0.00,88.000000,,2013-03-11 23:43:00,
2013-03-11 18:53:00,30.0,19.0,-100.00,NW,325,5.0,13.0,63,0.00,,,0.00,88.000000,,2013-03-11 23:53:00,
2013-03-11 19:02:00,30.0,19.0,-100.00,NW,325,5.0,13.0,63,0.00,,,0.00,88.000000,,2013-03-12 00:02:00,
2013-03-11 19:33:00,29.0,20.0,-100.00,WNW,293,4.0,11.0,70,0.00,,,0.00,27.000000,,2013-03-12 00:33:00,
2013-03-11 19:43:00,29.0,20.0,-100.00,WNW,293,4.0,11.0,70,0.00,,,0.00,27.000000,,2013-03-12 00:43:00,
2013-03-11 19:53:00,29.0,20.0,-100.00,WNW,293,4.0,11.0,70,0.00,,,0.00,27.000000,,2013-03-12 00:53:00,
2013-03-11 20:02:00,29.0,20.0,-100.00,WNW,293,4.0,11.0,70,0.00,,,0.00,27.000000,,2013-03-12 01:02:00,
2013-03-11 20:33:00,28.0,20.0,-100.00,WNW,295,5.0,11.0,71,0.00,,,0.00,1.000000,,2013-03-12 01:33:00,
2013-03-11 20:42:00,28.0,20.0,-100.00,WNW,295,5.0,11.0,71,0.00,,,0.00,1.000000,,2013-03-12 01:42:00,
2013-03-11 20:52:00,28.0,20.0,-100.00,WNW,295,5.0,11.0,71,0.00,,,0.00,1.000000,,2013-03-12 01:52:00,
2013-03-11 21:02:00,28.0,20.0,-100.00,WNW,295,5.0,11.0,71,0.00,,,0.00,1.000000,,2013-03-12 02:02:00,
2013-03-11 21:32:00,27.0,20.0,-100.00,WNW,297,6.0,11.0,73,0.00,,,0.00,0.000000,,2013-03-12 02:32:00,
2013-03-11 21:43:00,27.0,20.0,-100.00,WNW,297,6.0,11.0,73,0.00,,,0.00,0.000000,,2013-03-12 02:43:00,
2013-03-11 21:52:00,27.0,20.0,-100.00,WNW,297,6.0,11.0,73,0.00,,,0.00,0.000000,,2013-03-12 02:52:00,
2013-03-11 22:02:00,27.0,20.0,-100.00,WNW,297,6.0,11.0,73,0.00,,,0.00,0.000000,,2013-03-12 03:02:00,
2013-03-11 22:32:00,26.0,19.0,-100.00,WNW,286,4.0,12.0,73,0.00,,,0.00,0.000000,,2013-03-12 03:32:00,
2013-03-11 22:42:00,26.0,19.0,-100.00,WNW,286,4.0,12.0,73,0.00,,,0.00,0.000000,,2013-03-12 03:42:00,
2013-03-11 22:53:00,26.0,19.0,-100.00,WNW,286,4.0,12.0,73,0.00,,,0.00,0.000000,,2013-03-12 03:53:00,
2013-03-11 23:02:00,26.0,19.0,-100.00,WNW,286,4.0,12.0,73,0.00,,,0.00,0.000000,,2013-03-12 04:02:00,
2013-03-11 23:32:00,26.0,18.0,-100.00,West,278,4.0,7.0,72,0.00,,,0.00,0.000000,,2013-03-12 04:32:00,
2013-03-11 23:43:00,26.0,18.0,-100.00,West,278,4.0,7.0,72,0.00,,,0.00,0.000000,,2013-03-12 04:43:00,
2013-03-11 23:52:00,26.0,18.0,-100.00,West,278,4.0,7.0,72,0.00,,,0.00,0.000000,,2013-03-12 04:52:00,